• Join FlightAware (Why Join?)
  • Login
  • US Flag 
12:51PM EDT


 

Airport Tracker/Info


-or-


 

Live Flight TrackerFlight Track Log ✈ PCM8798 ✈ 11-May-2013 ✈ KLAS - KSGU

Flight Track Log - Related Links

Times and Time Zones

All times are in EDT time to prevent confusion due to time zone crossing. See the PCM8798 flight status page for this flight to view local times or setup timezone preferences in your user account.

Time Position Orientation Groundspeed Altitude Reporting Facility
EDT Latitude Longitude Course Direction KTS MPH feet Rate Location/Type
10:35AM 36.0825 -115.1581 294° West 88 101 2,800  Level Los Angeles Center
10:37AM 36.0972 -115.1992 294° West 120 138 3,600 720 Climbing Los Angeles Center
10:38AM 36.1225 -115.2233 322° Northwest 123 142 4,400 780 Climbing Los Angeles Center
10:39AM 36.1500 -115.2128 17° North 117 135 5,300 780 Climbing Los Angeles Center
10:40AM 36.1586 -115.1761 74° East 112 129 6,100 780 Climbing Los Angeles Center
10:41AM 36.1689 -115.1392 71° East 113 130 6,900 660 Climbing Los Angeles Center
10:42AM 36.1808 -115.1014 69° East 116 133 7,500 600 Climbing Los Angeles Center
10:43AM 36.1942 -115.0619 67° East 122 140 8,200 720 Climbing Los Angeles Center
10:44AM 36.2092 -115.0228 65° Northeast 125 144 9,000 720 Climbing Los Angeles Center
10:45AM 36.2264 -114.9789 64° Northeast 120 138 9,800 660 Climbing Los Angeles Center
10:46AM 36.2497 -114.9478 47° Northeast 123 142 10,400 540 Climbing Los Angeles Center
10:47AM 36.2722 -114.9164 48° Northeast 123 142 11,000 300 Climbing Los Angeles Center
10:48AM 36.2989 -114.8811 47° Northeast 134 154 11,100  Climbing Los Angeles Center
10:49AM 36.3269 -114.8444 46° Northeast 144 166 11,000 -60 Descending Los Angeles Center
10:50AM 36.3558 -114.8064 47° Northeast 150 173 11,000  Level Los Angeles Center
10:51AM 36.3853 -114.7703 45° Northeast 150 173 11,000  Level Los Angeles Center
10:52AM 36.4192 -114.7267 46° Northeast 147 169 11,000  Level Los Angeles Center
10:53AM 36.4483 -114.6897 46° Northeast 149 171 11,000  Level Los Angeles Center
10:54AM 36.4850 -114.6439 45° Northeast 154 177 11,000  Level Los Angeles Center
10:55AM 36.5144 -114.6067 45° Northeast 153 176 11,000  Level Los Angeles Center
10:56AM 36.5447 -114.5694 45° Northeast 152 175 11,000  Level Los Angeles Center
10:57AM 36.5722 -114.5306 49° Northeast 153 176 11,100  Climbing Los Angeles Center
10:58AM 36.6008 -114.4931 46° Northeast 151 174 11,100  Level Los Angeles Center
10:59AM 36.6314 -114.4567 44° Northeast 151 174 11,100  Level Los Angeles Center
11:00AM 36.6658 -114.4114 47° Northeast 151 174 11,100  Level Los Angeles Center
11:01AM 36.6939 -114.3733 47° Northeast 150 173 11,100  Level Los Angeles Center
11:02AM 36.7242 -114.3358 45° Northeast 152 175 11,100  Level Los Angeles Center
11:03AM 36.7539 -114.2992 45° Northeast 152 175 11,100 -60 Level Los Angeles Center
11:04AM 36.7742 -114.2539 61° Northeast 151 174 11,000  Descending Los Angeles Center
11:06AM 36.7936 -114.2083 62° Northeast 149 171 11,100  Climbing Los Angeles Center
11:07AM 36.8083 -114.1583 70° East 152 175 11,000  Descending Los Angeles Center
11:08AM 36.8247 -114.1100 67° East 152 175 11,100  Climbing Los Angeles Center
11:09AM 36.8431 -114.0517 69° East 151 174 11,100  Level Los Angeles Center
11:10AM 36.8589 -114.0039 67° East 150 173 11,100  Level Los Angeles Center
11:11AM 36.8753 -113.9556 67° East 151 174 11,100 -300 Level Los Angeles Center
11:12AM 36.8894 -113.9053 71° East 153 176 10,600 -300 Descending Los Angeles Center
11:13AM 36.9075 -113.8483 68° East 164 189 10,500 -240 Descending Los Angeles Center
11:14AM 36.9242 -113.7972 68° East 162 186 10,200 -660 Descending Los Angeles Center
11:15AM 36.9419 -113.7453 67° East 162 186 9,200 -1,080 Descending Los Angeles Center
11:16AM 36.9619 -113.6861 67° East 179 206 8,100 -1,080 Descending Los Angeles Center
11:17AM 36.9797 -113.6297 68° East 177 204 7,100 -780 Descending Los Angeles Center
11:18AM 36.9936 -113.5722 73° East 174 200 6,500 -960 Descending Los Angeles Center
11:19AM 37.0131 -113.5050 70° East 173 199 5,200 -1,320 Descending Los Angeles Center
11:21AM 37.0333 -113.5000 39° Northeast  Level FlightAware Approximate
11:28AM 37.0364 -113.5103 39° Northeast  Level Estimated